Regional Weather Roundup
Issued by NWS

Home | Current Version | Previous Version | Graphics & Text | Print | Product List | Glossary On
Versions: 1 2 3 4 5 6 7 8 9 10 11 12 13 14 15 16 17 18 19 20 21 22 23 24 25 26 27 28 29 30 31 32 33 34 35 36 37 38 39 40 41 42 43 44 45 46 47 48 49 50
000
ASUS43 KDTX 231001
RWRMI
MICHIGAN HOURLY REGIONAL WEATHER ROUNDUP
NATIONAL WEATHER SERVICE DETROIT/PONTIAC MI
600 AM EDT SAT JUL 23 2016

NOTE: "FAIR" INDICATES FEW OR NO CLOUDS BELOW 12,000 FEET WITH NO
SIGNIFICANT WEATHER AND/OR OBSTRUCTION TO VISIBILITY.

MIZ047>049-052>055-059>063-066>070-074>076-081>083-231100-
SOUTHEAST LOWER MICHIGAN

CITY           SKY/WX    TMP DP  RH WIND       PRES   REMARKS
ADRIAN         CLEAR     67  67 100 W3        30.00S
ALMA           CLEAR     66  66 100 CALM      29.99S FOG
ANN ARBOR      FOG       65  65 100 CALM      29.99R VSB 3/4
BAD AXE        CLEAR     60  59  97 CALM      29.97R
CARO           FOG       61  60  97 CALM      29.96S VSB 1/2
DETROIT CITY   CLEAR     74  70  87 W3        29.98R
DETROIT        PTCLDY    72  68  87 NW5       29.98S
FLINT          CLEAR     67  64  90 CALM      29.99S FOG
GROSSE ILE     CLEAR     74  69  85 NW3       29.97R
HOWELL         CLEAR     68  67  97 W5        30.00S FOG

CITY           SKY/WX    TMP DP  RH WIND       PRES   REMARKS
JACKSON        CLEAR     67  67 100 SW3       30.01R
LAMBERTVILLE   CLEAR     70  68  93 CALM      29.99S FOG
LANSING        CLEAR     68  65  90 CALM      30.00S FOG
LAPEER         FAIR      62  62  97 CALM      29.98S
MASON          CLEAR     66  65  96 W5        30.01R FOG
MONROE         CLEAR     69  69  99 W10       29.98R
MT. CLEMENS    CLEAR     70  68  93 NW5       29.95R
PONTIAC        PTCLDY    70  67  90 CALM      29.99R
PORT HOPE        N/A     66  61  84 W6        29.94R
PORT HURON     FOG       64  64 100 CALM      29.97S VSB 1/2
TRI CITIES     PTCLDY    69  66  90 W7        29.98R
MIDLAND        FAIR      63  63  99 CALM      29.97S
TROY           CLEAR     74  69  84 CALM      30.00R
SAGINAW HB     PTCLDY    66  64  94 SW3       29.97R
$$
MIZ043>046-050>051-056>058-064>065-071>073-077>080-231100-
SOUTHWEST LOWER MICHIGAN

CITY           SKY/WX    TMP DP  RH WIND       PRES   REMARKS
BATTLE CREEK   CLEAR     66  66 100 CALM      30.01R
BENTON HARBOR  CLEAR     68  65  90 CALM      29.98S FOG
BIG RAPIDS     CLEAR     64  64 100 CALM      29.99S
COLDWATER      PTCLDY    65  65 100 CALM      30.01R FOG
FREMONT        FOG       64  64 100 CALM      29.99S VSB 1
HOLLAND        CLEAR     63  62  97 E3        29.99S FOG
GRAND RAPIDS   PTCLDY    66  63  90 CALM      29.99F
IONIA          FAIR      66  65  94 W3        29.99S FOG
KALAMAZOO      FOG       66  63  90 CALM      30.00R VSB 3/4
LUDINGTON      FOG       64  64 100 CALM      29.96S VSB<1/4
MARSHALL       FOG       64  63  98 CALM      30.00R VSB 1/4
MOUNT PLEASANT CLEAR     69  67  93 CALM      29.97S
MUSKEGON       PTCLDY    69  66  90 CALM      29.98S FOG
SOUTH HAVEN    CLEAR     64  64  99 CALM      29.99S
$$
MIZ016>042-231100-
NORTHERN LOWER MICHIGAN

CITY           SKY/WX    TMP DP  RH WIND       PRES   REMARKS
ALPENA         CLEAR     59  57  93 W3        29.95S
BEAVER ISLAND  CLEAR     61  60  99 CALM      29.95S
BELLAIRE         N/A     60  59  96 CALM      29.97S FOG
CADILLAC       PTCLDY    62  60  92 CALM      30.00S FOG
CHARLEVOIX     CLEAR     64  63  97 CALM      29.99S
FRANKFORT      CLOUDY    68  66  93 CALM      29.97S FOG
GAYLORD        PTCLDY    61  57  87 W3        29.99S
GRAYLING       CLOUDY    59  57  93 CALM      30.00R
HARBOR SPRINGS CLEAR     65  64  96 CALM      29.96S
HOUGHTON LAKE  PTCLDY    59  58  96 E3        30.00R
MANISTEE       CLOUDY    63  62  97 NE3       29.97S FOG
OSCODA         PTCLDY    66  59  78 CALM      29.95R
PELLSTON       CLEAR     58  56  93 CALM      29.95F
ROGERS CITY    CLEAR     67  60  80 W6        29.94F
TRAVERSE CITY  CLOUDY    69  66  90 CALM      29.95S
$$
MIZ007>008-015-231100-
EASTERN UPPER MICHIGAN

CITY           SKY/WX    TMP DP  RH WIND       PRES   REMARKS
KINROSS        CLEAR     61  58  90 W3        29.94F
MACKINAC ISLAN CLEAR     66  66 100 W7        29.94S
NEWBERRY       CLEAR     59  58  97 W6        29.95S
S. S. MARIE    CLEAR     63  57  81 NW3       29.93S
MUNISING         N/A     59  58  96 S5        29.95S
$$
MIZ004>006-011>014-085-231100-
CENTRAL UPPER MICHIGAN

CITY           SKY/WX    TMP DP  RH WIND       PRES   REMARKS
MANISTIQUE     PTCLDY    62  60  90 NW3       29.95S
ESCANABA       CLEAR     61  57  88 N3        29.95S
MENOMINEE      PTCLDY    67  63  87 NW6       29.98S
SAWYER-GWINN   CLEAR     59  54  82 N5        29.99S
$$
MIZ001>003-009>011-084-231100-
WESTERN UPPER MICHIGAN

CITY           SKY/WX    TMP DP  RH WIND       PRES   REMARKS
IRON MOUNTAIN  PTCLDY    58  54  86 CALM      29.99S
HOUGHTON       PTCLDY    64  55  72 NW9       29.98R
COPPER HARBOR    N/A     66  60  81 N7        29.96R
IRONWOOD       CLOUDY    57  57 100 CALM      30.01S
$$

ABBREVIATIONS USED IN REMARKS
   TC - TEMPERATURE IN CELSIUS
  WCI - WIND CHILL INDEX
   HX - HEAT INDEX
  VSB - VISIBILITY





USA.gov is the U.S. government's official web portal to all federal, state and local government web resources and services.